| time (UTC) | temp C | wind direction | speed KPH | gust KPH | rain 1hr cm | rain 24hr cm | rain mn cm | humidity % | barometer mb |
| 20260506232517 | 10 | 291 | 4.8 | 4.8 | 0.00 | 0.33 | 0.33 | 98 | 1013.5 |
| 20260506232013 | 10 | 266 | 4.8 | 4.8 | 0.00 | 0.33 | 0.33 | 98 | 1013.3 |
| 20260506231511 | 10 | 320 | 9.7 | 11.3 | 0.00 | 0.33 | 0.33 | 99 | 1013.2 |
| 20260506231009 | 10 | 270 | 6.4 | 11.3 | 0.00 | 0.33 | 0.33 | 99 | 1013.1 |
| 20260506230504 | 10 | 242 | 3.2 | 3.2 | 0.00 | 0.33 | 0.33 | 99 | 1012.9 |
| 20260506230003 | 10 | 286 | 8.0 | 9.7 | 0.00 | 0.33 | 0.33 | 99 | 1012.7 |
| 20260506225459 | 10 | 306 | 4.8 | 4.8 | 0.00 | 0.33 | 0.33 | 99 | 1012.8 |
| 20260506224955 | 10 | 270 | 6.4 | 8.0 | 0.00 | 0.33 | 0.33 | 99 | 1012.5 |
| 20260506224452 | 10 | 353 | 8.0 | 9.7 | 0.00 | 0.33 | 0.33 | 99 | 1012.6 |
| 20260506223949 | 10 | 284 | 8.0 | 9.7 | 0.00 | 0.33 | 0.33 | 99 | 1012.7 |
| 20260506223445 | 10 | 292 | 6.4 | 8.0 | 0.00 | 0.33 | 0.33 | 99 | 1012.8 |
| 20260506222942 | 10 | 288 | 6.4 | 9.7 | 0.00 | 0.33 | 0.33 | 98 | 1012.8 |
| 20260506222439 | 10 | 266 | 4.8 | 4.8 | 0.00 | 0.33 | 0.33 | 98 | 1012.6 |
| 20260506221935 | 10 | 318 | 6.4 | 8.0 | 0.00 | 0.33 | 0.33 | 98 | 1012.6 |
| 20260506221432 | 10 | 266 | 3.2 | 3.2 | 0.00 | 0.33 | 0.33 | 98 | 1012.7 |
| 20260506220930 | 10 | 262 | 3.2 | 3.2 | 0.00 | 0.33 | 0.33 | 98 | 1012.7 |
| 20260506220425 | 10 | 341 | 6.4 | 8.0 | 0.00 | 0.33 | 0.33 | 98 | 1012.7 |
| 20260506215922 | 10 | 242 | 3.2 | 4.8 | 0.00 | 0.33 | 0.33 | 98 | 1012.7 |
| 20260506215418 | 10 | 292 | 8.0 | 12.9 | 0.00 | 0.33 | 0.33 | 98 | 1012.7 |
| 20260506214914 | 10 | 285 | 6.4 | 8.0 | 0.00 | 0.33 | 0.33 | 98 | 1012.3 |
| 20260506214411 | 10 | 333 | 9.7 | 11.3 | 0.00 | 0.33 | 0.33 | 98 | 1012.6 |
| 20260506213909 | 10 | 273 | 6.4 | 8.0 | 0.00 | 0.33 | 0.33 | 99 | 1012.3 |
| 20260506213406 | 10 | 335 | 8.0 | 9.7 | 0.00 | 0.33 | 0.33 | 99 | 1012.3 |
| 20260506212904 | 10 | 262 | 8.0 | 9.7 | 0.00 | 0.33 | 0.33 | 99 | 1011.9 |
| 20260506212359 | 10 | 313 | 8.0 | 11.3 | 0.00 | 0.33 | 0.33 | 99 | 1012.0 |
| 20260506211854 | 10 | 259 | 4.8 | 4.8 | 0.00 | 0.33 | 0.33 | 98 | 1011.8 |
| 20260506211351 | 10 | 310 | 6.4 | 8.0 | 0.00 | 0.33 | 0.33 | 98 | 1011.8 |
| 20260506210848 | 10 | 341 | 9.7 | 11.3 | 0.00 | 0.33 | 0.33 | 98 | 1011.8 |
| 20260506210345 | 11 | 6 | 11.3 | 12.9 | 0.00 | 0.33 | 0.33 | 98 | 1011.9 |
| 20260506205842 | 11 | 260 | 6.4 | 8.0 | 0.00 | 0.33 | 0.33 | 99 | 1011.9 |
| 20260506205338 | 11 | 261 | 8.0 | 9.7 | 0.00 | 0.33 | 0.33 | 98 | 1011.8 |
| 20260506204834 | 10 | 301 | 4.8 | 8.0 | 0.00 | 0.33 | 0.33 | 98 | 1011.4 |
| 20260506204332 | 11 | 305 | 11.3 | 12.9 | 0.00 | 0.33 | 0.33 | 99 | 1011.6 |
| 20260506203830 | 11 | 290 | 4.8 | 8.0 | 0.00 | 0.33 | 0.33 | 99 | 1011.5 |
| 20260506203327 | 11 | 333 | 6.4 | 8.0 | 0.00 | 0.33 | 0.33 | 99 | 1011.6 |
| 20260506202823 | 10 | 261 | 4.8 | 4.8 | 0.00 | 0.33 | 0.33 | 99 | 1011.3 |
| 20260506202321 | 10 | 274 | 4.8 | 4.8 | 0.00 | 0.33 | 0.33 | 99 | 1011.3 |
| 20260506201817 | 10 | 285 | 3.2 | 3.2 | 0.00 | 0.33 | 0.33 | 99 | 1011.2 |
| 20260506201314 | 10 | 292 | 8.0 | 9.7 | 0.00 | 0.33 | 0.33 | 99 | 1011.6 |
| 20260506200811 | 10 | 251 | 1.6 | 1.6 | 0.00 | 0.33 | 0.33 | 99 | 1011.2 |
| 20260506200307 | 11 | 264 | 1.6 | 1.6 | 0.00 | 0.33 | 0.33 | 99 | 1011.5 |
| 20260506195803 | 11 | 275 | 8.0 | 8.0 | 0.00 | 0.33 | 0.33 | 99 | 1011.4 |
| 20260506195301 | 11 | 342 | 8.0 | 11.3 | 0.00 | 0.33 | 0.33 | 99 | 1011.3 |
| 20260506194758 | 11 | 256 | 4.8 | 4.8 | 0.00 | 0.33 | 0.33 | 99 | 1011.5 |
| 20260506194254 | 11 | 346 | 14.5 | 16.1 | 0.00 | 0.33 | 0.33 | 99 | 1011.4 |
| 20260506193752 | 11 | 301 | 9.7 | 11.3 | 0.00 | 0.33 | 0.33 | 99 | 1011.4 |
| 20260506193248 | 11 | 261 | 9.7 | 11.3 | 0.00 | 0.33 | 0.33 | 99 | 1011.3 |
| 20260506192744 | 11 | 322 | 9.7 | 12.9 | 0.00 | 0.33 | 0.33 | 99 | 1011.1 |
| 20260506192242 | 12 | 318 | 17.7 | 22.5 | 0.00 | 0.33 | 0.33 | 99 | 1011.1 |
| 20260506191738 | 12 | 294 | 8.0 | 11.3 | 0.00 | 0.33 | 0.33 | 99 | 1011.0 |
| 20260506191235 | 12 | 331 | 8.0 | 11.3 | 0.00 | 0.33 | 0.33 | 99 | 1010.9 |
| 20260506190732 | 12 | 4 | 14.5 | 17.7 | 0.00 | 0.33 | 0.33 | 98 | 1010.7 |
| 20260506190228 | 13 | 343 | 11.3 | 12.9 | 0.00 | 0.33 | 0.33 | 97 | 1010.7 |
| 20260506185726 | 13 | 290 | 4.8 | 4.8 | 0.00 | 0.33 | 0.33 | 97 | 1010.7 |
| 20260506185222 | 13 | 312 | 9.7 | 11.3 | 0.00 | 0.33 | 0.33 | 96 | 1010.6 |
| 20260506184719 | 13 | 250 | 3.2 | 4.8 | 0.00 | 0.33 | 0.33 | 96 | 1010.6 |
| 20260506184217 | 13 | 319 | 8.0 | 12.9 | 0.00 | 0.33 | 0.33 | 96 | 1010.7 |
| 20260506183713 | 13 | 253 | 1.6 | 3.2 | 0.00 | 0.33 | 0.33 | 97 | 1010.7 |
| 20260506183209 | 13 | 263 | 1.6 | 3.2 | 0.00 | 0.33 | 0.33 | 97 | 1010.7 |
| 20260506182706 | 13 | 317 | 4.8 | 4.8 | 0.00 | 0.33 | 0.33 | 97 | 1010.7 |
| 20260506182204 | 13 | 247 | 1.6 | 1.6 | 0.00 | 0.33 | 0.33 | 98 | 1010.8 |
| 20260506181701 | 13 | 254 | 1.6 | 1.6 | 0.00 | 0.33 | 0.33 | 98 | 1010.6 |
| 20260506181158 | 13 | 256 | 4.8 | 4.8 | 0.00 | 0.33 | 0.33 | 98 | 1010.8 |
| 20260506180655 | 13 | 273 | 6.4 | 8.0 | 0.00 | 0.33 | 0.33 | 98 | 1010.8 |
| 20260506180151 | 13 | 250 | 3.2 | 4.8 | 0.00 | 0.33 | 0.33 | 98 | 1010.9 |
| 20260506175648 | 13 | 8 | 4.8 | 4.8 | 0.00 | 0.33 | 0.33 | 98 | 1010.9 |
| 20260506175145 | 13 | 2 | 11.3 | 12.9 | 0.00 | 0.33 | 0.33 | 98 | 1010.7 |
| 20260506174638 | 13 | 277 | 8.0 | 9.7 | 0.00 | 0.33 | 0.33 | 98 | 1010.7 |
| 20260506174134 | 14 | 341 | 8.0 | 9.7 | 0.00 | 0.33 | 0.33 | 96 | 1010.5 |
| 20260506173631 | 14 | 277 | 11.3 | 14.5 | 0.00 | 0.33 | 0.33 | 96 | 1010.5 |
| 20260506173129 | 15 | 15 | 11.3 | 14.5 | 0.00 | 0.33 | 0.33 | 95 | 1010.1 |
| 20260506172626 | 15 | 273 | 9.7 | 9.7 | 0.00 | 0.33 | 0.33 | 96 | 1010.3 |
| 20260506172121 | 15 | 328 | 8.0 | 9.7 | 0.00 | 0.33 | 0.33 | 95 | 1010.2 |
| 20260506171620 | 15 | 277 | 6.4 | 8.0 | 0.00 | 0.33 | 0.33 | 96 | 1009.9 |
| 20260506171117 | 15 | 269 | 8.0 | 11.3 | 0.00 | 0.33 | 0.33 | 96 | 1010.0 |
| 20260506170615 | 15 | 259 | 4.8 | 4.8 | 0.00 | 0.33 | 0.33 | 96 | 1010.1 |
| 20260506170111 | 15 | 285 | 4.8 | 4.8 | 0.00 | 0.33 | 0.33 | 96 | 1009.8 |
| 20260506165610 | 15 | 255 | 4.8 | 4.8 | 0.00 | 0.33 | 0.33 | 96 | 1009.7 |
| 20260506165106 | 15 | 313 | 12.9 | 14.5 | 0.00 | 0.33 | 0.33 | 96 | 1010.0 |
| 20260506164603 | 15 | 261 | 1.6 | 1.6 | 0.00 | 0.33 | 0.33 | 98 | 1009.9 |
| 20260506164100 | 14 | 234 | 0.0 | 0.0 | 0.00 | 0.33 | 0.33 | 99 | 1009.8 |
| 20260506163555 | 14 | 245 | 0.0 | 0.0 | 0.00 | 0.33 | 0.33 | 99 | 1009.8 |
| 20260506163051 | 14 | 261 | 0.0 | 1.6 | 0.00 | 0.33 | 0.33 | 99 | 1009.9 |
| 20260506162547 | 14 | 265 | 1.6 | 1.6 | 0.00 | 0.33 | 0.33 | 99 | 1009.8 |
| 20260506162039 | 14 | 262 | 1.6 | 3.2 | 0.00 | 0.33 | 0.33 | 99 | 1009.9 |
| 20260506161536 | 14 | 293 | 4.8 | 4.8 | 0.00 | 0.33 | 0.33 | 99 | 1009.8 |
| 20260506161028 | 15 | 251 | 1.6 | 3.2 | 0.00 | 0.33 | 0.33 | 99 | 1009.9 |
| 20260506160526 | 15 | 315 | 8.0 | 9.7 | 0.00 | 0.33 | 0.33 | 99 | 1009.9 |
| 20260506160023 | 15 | 269 | 3.2 | 4.8 | 0.00 | 0.33 | 0.33 | 99 | 1009.7 |
| 20260506155521 | 15 | 279 | 4.8 | 4.8 | 0.00 | 0.33 | 0.33 | 99 | 1009.6 |
| 20260506153658 | 15 | 301 | 11.3 | 14.5 | 0.00 | 0.33 | 0.33 | 99 | 1009.6 |
| 20260506153155 | 15 | 289 | 4.8 | 4.8 | 0.00 | 0.33 | 0.33 | 99 | 1009.5 |
| 20260506152652 | 15 | 260 | 1.6 | 3.2 | 0.00 | 0.33 | 0.33 | 99 | 1009.4 |
| 20260506152149 | 15 | 14 | 4.8 | 8.0 | 0.00 | 0.33 | 0.33 | 97 | 1009.5 |
| 20260506151648 | 15 | 279 | 11.3 | 12.9 | 0.00 | 0.33 | 0.33 | 97 | 1009.8 |
| 20260506151144 | 15 | 274 | 8.0 | 9.7 | 0.00 | 0.33 | 0.33 | 96 | 1009.6 |
| 20260506150641 | 15 | 296 | 6.4 | 14.5 | 0.00 | 0.33 | 0.33 | 96 | 1009.4 |
| 20260506150138 | 15 | 288 | 9.7 | 14.5 | 0.00 | 0.33 | 0.33 | 96 | 1009.1 |
| 20260506145635 | 15 | 136 | 4.8 | 9.7 | 0.00 | 0.33 | 0.33 | 98 | 1009.3 |
| 20260506145132 | 15 | 270 | 6.4 | 9.7 | 0.00 | 0.33 | 0.33 | 98 | 1009.1 |
| 20260506144630 | 15 | 253 | 4.8 | 4.8 | 0.00 | 0.33 | 0.33 | 98 | 1008.6 |
| 20260506144125 | 15 | 270 | 3.2 | 3.2 | 0.00 | 0.33 | 0.33 | 99 | 1008.9 |
| 20260506143624 | 15 | 249 | 3.2 | 3.2 | 0.00 | 0.33 | 0.33 | 99 | 1008.8 |
| 20260506143121 | 14 | 95 | 9.7 | 24.1 | 0.00 | 0.33 | 0.33 | 99 | 1008.9 |
| 20260506142620 | 14 | 332 | 4.8 | 9.7 | 0.00 | 0.33 | 0.33 | 99 | 1009.1 |
| 20260506142118 | 14 | 263 | 8.0 | 11.3 | 0.00 | 0.33 | 0.33 | 99 | 1008.8 |
| 20260506141615 | 14 | 231 | 1.6 | 3.2 | 0.00 | 0.33 | 0.33 | 99 | 1008.6 |
| 20260506141113 | 13 | 244 | 0.0 | 0.0 | 0.00 | 0.33 | 0.33 | 99 | 1009.1 |
| 20260506140610 | 13 | 264 | 1.6 | 3.2 | 0.00 | 0.33 | 0.33 | 99 | 1009.0 |
| 20260506140107 | 13 | 299 | 1.6 | 1.6 | 0.00 | 0.33 | 0.33 | 99 | 1009.1 |
| 20260506135604 | 13 | 277 | 1.6 | 1.6 | 0.00 | 0.33 | 0.33 | 99 | 1008.8 |
| 20260506135100 | 13 | 244 | 0.0 | 1.6 | 0.00 | 0.33 | 0.33 | 99 | 1008.9 |
| 20260506134557 | 13 | 198 | 0.0 | 1.6 | 0.00 | 0.33 | 0.33 | 99 | 1009.0 |
| 20260506134053 | 13 | 237 | 0.0 | 0.0 | 0.00 | 0.33 | 0.33 | 99 | 1009.0 |
| 20260506133550 | 13 | 225 | 0.0 | 1.6 | 0.00 | 0.33 | 0.33 | 99 | 1009.2 |
| 20260506133047 | 13 | 249 | 0.0 | 1.6 | 0.00 | 0.33 | 0.33 | 99 | 1009.0 |
| 20260506132544 | 13 | 253 | 0.0 | 0.0 | 0.00 | 0.33 | 0.33 | 99 | 1009.2 |
| 20260506132041 | 13 | 171 | 1.6 | 1.6 | 0.13 | 0.33 | 0.33 | 99 | 1009.2 |
| 20260506131538 | 13 | 230 | 1.6 | 1.6 | 0.00 | 0.30 | 0.30 | 99 | 1009.3 |
| 20260506131034 | 13 | 250 | 1.6 | 1.6 | 0.18 | 0.30 | 0.30 | 99 | 1009.2 |
| 20260506130532 | 13 | 237 | 0.0 | 0.0 | 0.30 | 0.30 | 0.30 | 99 | 1009.4 |
| 20260506130029 | 13 | 295 | 1.6 | 3.2 | 0.13 | 0.28 | 0.28 | 99 | 1009.3 |
| 20260506125527 | 13 | 259 | 1.6 | 3.2 | 0.18 | 0.25 | 0.25 | 99 | 1009.3 |
| 20260506125025 | 13 | 249 | 1.6 | 3.2 | 0.18 | 0.25 | 0.25 | 99 | 1009.1 |
| 20260506124523 | 13 | 259 | 1.6 | 1.6 | 0.00 | 0.23 | 0.23 | 99 | 1009.1 |
| 20260506124020 | 13 | 288 | 3.2 | 4.8 | 0.00 | 0.23 | 0.23 | 99 | 1009.4 |
| 20260506123518 | 13 | 268 | 4.8 | 8.0 | 0.00 | 0.23 | 0.23 | 99 | 1009.2 |
| 20260506123016 | 13 | 258 | 4.8 | 4.8 | 0.00 | 0.23 | 0.23 | 99 | 1009.3 |
| 20260506122512 | 13 | 255 | 1.6 | 3.2 | 0.00 | 0.23 | 0.23 | 99 | 1009.2 |
| 20260506122010 | 13 | 200 | 1.6 | 3.2 | 0.00 | 0.23 | 0.23 | 99 | 1009.2 |
| 20260506121508 | 13 | 284 | 3.2 | 3.2 | 0.00 | 0.23 | 0.23 | 99 | 1009.5 |
| 20260506121004 | 12 | 255 | 0.0 | 1.6 | 0.00 | 0.23 | 0.23 | 99 | 1009.4 |
| 20260506120502 | 12 | 222 | 0.0 | 1.6 | 0.00 | 0.23 | 0.23 | 99 | 1009.3 |
| 20260506115959 | 12 | 256 | 0.0 | 1.6 | 0.00 | 0.23 | 0.23 | 99 | 1009.4 |
| 20260506115456 | 12 | 250 | 0.0 | 0.0 | 0.00 | 0.23 | 0.23 | 99 | 1009.2 |
| 20260506114955 | 12 | 261 | 3.2 | 3.2 | 0.00 | 0.23 | 0.23 | 99 | 1009.3 |
| 20260506114452 | 12 | 292 | 0.0 | 1.6 | 0.00 | 0.23 | 0.23 | 99 | 1009.3 |
| 20260506113951 | 12 | 237 | 1.6 | 1.6 | 0.00 | 0.23 | 0.23 | 99 | 1009.2 |
| 20260506113448 | 12 | 182 | 0.0 | 1.6 | 0.00 | 0.23 | 0.23 | 99 | 1009.1 |
| 20260506112944 | 12 | 193 | 0.0 | 1.6 | 0.18 | 0.23 | 0.23 | 99 | 1009.0 |
| 20260506112442 | 12 | 231 | 1.6 | 3.2 | 0.00 | 0.20 | 0.20 | 99 | 1009.5 |
| 20260506111939 | 12 | 240 | 0.0 | 0.0 | 0.00 | 0.20 | 0.20 | 99 | 1009.6 |
| 20260506111437 | 12 | 227 | 0.0 | 1.6 | 0.13 | 0.20 | 0.20 | 99 | 1009.3 |
| 20260506110934 | 12 | 267 | 1.6 | 3.2 | 0.13 | 0.20 | 0.20 | 99 | 1009.3 |
| 20260506110432 | 12 | 250 | 0.0 | 0.0 | 0.00 | 0.18 | 0.18 | 99 | 1009.2 |
| 20260506105928 | 12 | 243 | 0.0 | 0.0 | 0.18 | 0.18 | 0.18 | 99 | 1009.4 |
| 20260506105424 | 12 | 236 | 0.0 | 1.6 | 0.13 | 0.15 | 0.15 | 99 | 1009.2 |
| 20260506104922 | 12 | 226 | 0.0 | 0.0 | 0.30 | 0.15 | 0.15 | 99 | 1009.4 |
| 20260506104420 | 12 | 226 | 0.0 | 0.0 | 0.18 | 0.13 | 0.13 | 99 | 1009.6 |
| 20260506103918 | 12 | 225 | 0.0 | 0.0 | 0.13 | 0.10 | 0.10 | 99 | 1009.3 |
| 20260506103415 | 12 | 229 | 0.0 | 0.0 | 0.18 | 0.08 | 0.08 | 99 | 1009.5 |
| 20260506102912 | 12 | 229 | 0.0 | 0.0 | 0.18 | 0.08 | 0.08 | 99 | 1009.4 |
| 20260506102410 | 12 | 229 | 0.0 | 0.0 | 0.00 | 0.05 | 0.05 | 99 | 1009.6 |
| 20260506101907 | 12 | 229 | 0.0 | 0.0 | 0.00 | 0.05 | 0.05 | 99 | 1009.7 |
| 20260506101403 | 12 | 229 | 0.0 | 0.0 | 0.00 | 0.05 | 0.05 | 99 | 1009.7 |
| 20260506100900 | 12 | 229 | 0.0 | 0.0 | 0.00 | 0.05 | 0.05 | 99 | 1009.7 |
| 20260506100359 | 12 | 229 | 0.0 | 0.0 | 0.13 | 0.05 | 0.05 | 99 | 1009.8 |
| 20260506095856 | 12 | 229 | 0.0 | 0.0 | 0.13 | 0.05 | 0.05 | 99 | 1009.9 |
| 20260506095354 | 12 | 229 | 0.0 | 0.0 | 0.00 | 0.03 | 0.03 | 99 | 1009.7 |
| 20260506094850 | 12 | 227 | 0.0 | 0.0 | 0.00 | 0.03 | 0.03 | 98 | 1009.5 |
| 20260506094349 | 12 | 226 | 0.0 | 0.0 | 0.18 | 0.03 | 0.03 | 98 | 1009.5 |
| 20260506093847 | 12 | 223 | 0.0 | 0.0 | 0.18 | 0.03 | 0.03 | 97 | 1009.7 |
| 20260506093344 | 12 | 236 | 0.0 | 0.0 | 0.00 | 0.00 | 0.00 | 97 | 1009.5 |
| 20260506092842 | 12 | 246 | 0.0 | 0.0 | 0.00 | 0.00 | 0.00 | 97 | 1009.5 |
| 20260506092340 | 12 | 230 | 0.0 | 0.0 | 0.00 | 0.00 | 0.00 | 96 | 1009.5 |
| 20260506091836 | 12 | 231 | 0.0 | 0.0 | 0.00 | 0.00 | 0.00 | 95 | 1009.5 |
| 20260506091334 | 12 | 231 | 0.0 | 0.0 | 0.00 | 0.00 | 0.00 | 95 | 1009.6 |
| 20260506090831 | 12 | 231 | 0.0 | 0.0 | 0.00 | 0.00 | 0.00 | 95 | 1009.8 |
| 20260506090328 | 12 | 231 | 0.0 | 0.0 | 0.00 | 0.00 | 0.00 | 94 | 1009.5 |
| 20260506085825 | 12 | 231 | 0.0 | 0.0 | 0.00 | 0.00 | 0.00 | 94 | 1009.6 |
| 20260506085321 | 12 | 230 | 0.0 | 0.0 | 0.00 | 0.00 | 0.00 | 94 | 1009.6 |
| 20260506084818 | 12 | 230 | 0.0 | 0.0 | 0.00 | 0.00 | 0.00 | 95 | 1009.4 |
| 20260506084315 | 12 | 242 | 0.0 | 0.0 | 0.00 | 0.00 | 0.00 | 95 | 1009.6 |
| 20260506083811 | 12 | 243 | 0.0 | 0.0 | 0.00 | 0.00 | 0.00 | 95 | 1009.7 |
| 20260506083309 | 12 | 226 | 0.0 | 0.0 | 0.00 | 0.00 | 0.00 | 94 | 1009.3 |
| 20260506082806 | 12 | 228 | 0.0 | 1.6 | 0.00 | 0.00 | 0.00 | 95 | 1009.5 |
| 20260506082304 | 12 | 221 | 1.6 | 1.6 | 0.00 | 0.00 | 0.00 | 95 | 1009.7 |
| 20260506081759 | 13 | 235 | 0.0 | 0.0 | 0.00 | 0.00 | 0.00 | 93 | 1009.3 |
| 20260506081257 | 13 | 192 | 1.6 | 1.6 | 0.00 | 0.00 | 0.00 | 93 | 1009.6 |
| 20260506080754 | 13 | 252 | 0.0 | 0.0 | 0.00 | 0.00 | 0.00 | 92 | 1009.4 |
| 20260506080250 | 13 | 225 | 0.0 | 1.6 | 0.00 | 0.00 | 0.00 | 91 | 1009.1 |
| 20260506073234 | 13 | 242 | 0.0 | 0.0 | 0.00 | 0.00 | 0.00 | 90 | 1009.7 |
| 20260506072731 | 13 | 242 | 0.0 | 0.0 | 0.00 | 0.00 | 0.00 | 90 | 1009.4 |
| 20260506072229 | 13 | 246 | 0.0 | 0.0 | 0.00 | 0.00 | 0.00 | 89 | 1009.4 |
| 20260506071727 | 13 | 223 | 0.0 | 0.0 | 0.00 | 0.00 | 0.00 | 88 | 1009.4 |
| 20260506071224 | 13 | 223 | 0.0 | 0.0 | 0.00 | 0.00 | 0.00 | 88 | 1009.7 |
| 20260506070721 | 13 | 223 | 0.0 | 0.0 | 0.00 | 0.00 | 0.00 | 88 | 1009.7 |
| 20260506070218 | 13 | 223 | 0.0 | 0.0 | 0.00 | 0.00 | 0.00 | 89 | 1009.8 |
| 20260506062154 | 13 | 224 | 0.0 | 0.0 | 0.00 | 0.00 | 0.00 | 88 | 1010.5 |
| 20260506061650 | 13 | 224 | 0.0 | 0.0 | 0.00 | 0.00 | 0.00 | 87 | 1010.5 |
| 20260506061148 | 13 | 224 | 0.0 | 0.0 | 0.00 | 0.00 | 0.00 | 87 | 1010.5 |
| 20260506060647 | 14 | 224 | 1.6 | 1.6 | 0.00 | 0.00 | 0.00 | 85 | 1010.5 |
| 20260506060143 | 14 | 226 | 0.0 | 0.0 | 0.00 | 0.00 | 0.00 | 84 | 1010.6 |
| 20260506051115 | 13 | 215 | 0.0 | 0.0 | 0.00 | 0.00 | 0.00 | 86 | 1010.6 |
| 20260506050614 | 14 | 215 | 0.0 | 0.0 | 0.00 | 0.00 | 0.00 | 86 | 1010.7 |
| 20260506050111 | 14 | 215 | 0.0 | 0.0 | 0.00 | 0.00 | 0.00 | 83 | 1010.9 |
| 20260506045104 | 13 | 216 | 0.0 | 0.0 | 0.00 | 0.00 | 0.00 | 84 | 1011.0 |
| 20260506044602 | 13 | 216 | 0.0 | 0.0 | 0.00 | 0.00 | 0.00 | 84 | 1011.4 |
| 20260506044058 | 13 | 216 | 0.0 | 0.0 | 0.00 | 0.00 | 0.00 | 85 | 1011.1 |
| 20260506043555 | 13 | 216 | 0.0 | 0.0 | 0.00 | 0.00 | 0.00 | 85 | 1011.4 |
| 20260506043054 | 14 | 216 | 0.0 | 1.6 | 0.00 | 0.00 | 0.00 | 84 | 1011.5 |
| 20260506042553 | 14 | 215 | 0.0 | 0.0 | 0.00 | 0.00 | 0.00 | 83 | 1011.3 |
| 20260506042050 | 13 | 213 | 0.0 | 1.6 | 0.00 | 0.00 | 0.00 | 85 | 1011.7 |
| 20260506041549 | 13 | 217 | 0.0 | 1.6 | 0.00 | 0.00 | 0.00 | 86 | 1011.5 |
| 20260506041045 | 13 | 238 | 0.0 | 0.0 | 0.00 | 0.00 | 0.00 | 87 | 1011.6 |
| 20260506040543 | 13 | 263 | 1.6 | 1.6 | 0.00 | 0.00 | 0.00 | 87 | 1011.4 |
| 20260506040038 | 13 | 216 | 0.0 | 0.0 | 0.00 | 0.00 | 0.00 | 84 | 1011.0 |
| 20260506035536 | 14 | 218 | 0.0 | 0.0 | 0.00 | 0.00 | 0.00 | 84 | 1011.2 |
| 20260506035032 | 14 | 218 | 0.0 | 0.0 | 0.00 | 0.00 | 0.00 | 80 | 1011.3 |
| 20260506034530 | 14 | 218 | 0.0 | 0.0 | 0.00 | 0.00 | 0.00 | 80 | 1011.4 |
| 20260506034026 | 14 | 219 | 0.0 | 0.0 | 0.00 | 0.00 | 0.00 | 80 | 1011.0 |
| 20260506033524 | 14 | 207 | 1.6 | 1.6 | 0.00 | 0.00 | 0.00 | 81 | 1011.2 |
| 20260506033021 | 14 | 217 | 0.0 | 0.0 | 0.00 | 0.00 | 0.00 | 82 | 1011.5 |
| 20260506032518 | 14 | 217 | 0.0 | 1.6 | 0.00 | 0.00 | 0.00 | 82 | 1011.5 |
| 20260506032015 | 14 | 219 | 0.0 | 0.0 | 0.00 | 0.00 | 0.00 | 82 | 1011.2 |
| 20260506031513 | 14 | 235 | 0.0 | 0.0 | 0.00 | 0.00 | 0.00 | 81 | 1011.6 |
| 20260506031009 | 13 | 234 | 0.0 | 0.0 | 0.00 | 0.00 | 0.00 | 81 | 1011.6 |
| 20260506030508 | 13 | 234 | 0.0 | 0.0 | 0.00 | 0.00 | 0.00 | 82 | 1011.7 |
| 20260506030004 | 13 | 235 | 0.0 | 0.0 | 0.00 | 0.00 | 0.00 | 82 | 1011.7 |
| 20260506025501 | 13 | 235 | 0.0 | 0.0 | 0.00 | 0.00 | 0.00 | 82 | 1011.5 |
| 20260506024957 | 13 | 235 | 0.0 | 0.0 | 0.00 | 0.00 | 0.00 | 82 | 1011.7 |
| 20260506024454 | 13 | 235 | 0.0 | 0.0 | 0.00 | 0.00 | 0.00 | 82 | 1011.7 |
| 20260506023950 | 13 | 235 | 0.0 | 0.0 | 0.00 | 0.00 | 0.00 | 80 | 1011.5 |
| 20260506023447 | 14 | 235 | 0.0 | 0.0 | 0.00 | 0.00 | 0.00 | 80 | 1011.9 |
| 20260506022944 | 14 | 235 | 0.0 | 0.0 | 0.00 | 0.00 | 0.00 | 79 | 1011.2 |
| 20260506022442 | 14 | 235 | 0.0 | 0.0 | 0.00 | 0.00 | 0.00 | 79 | 1011.5 |
| 20260506021939 | 14 | 235 | 0.0 | 0.0 | 0.00 | 0.00 | 0.00 | 78 | 1011.5 |
| 20260506021436 | 14 | 235 | 0.0 | 0.0 | 0.00 | 0.00 | 0.00 | 79 | 1011.5 |
| 20260506020933 | 14 | 235 | 0.0 | 0.0 | 0.00 | 0.00 | 0.00 | 79 | 1011.4 |
| 20260506020431 | 15 | 234 | 0.0 | 0.0 | 0.00 | 0.00 | 0.00 | 78 | 1011.6 |
| 20260506015928 | 15 | 233 | 0.0 | 0.0 | 0.00 | 0.00 | 0.00 | 77 | 1011.6 |
| 20260506015426 | 15 | 235 | 0.0 | 0.0 | 0.00 | 0.00 | 0.00 | 76 | 1011.7 |
| 20260506014922 | 15 | 221 | 0.0 | 0.0 | 0.00 | 0.00 | 0.00 | 74 | 1011.5 |
| 20260506014419 | 15 | 226 | 0.0 | 0.0 | 0.00 | 0.00 | 0.00 | 73 | 1011.3 |
| 20260506013916 | 15 | 214 | 1.6 | 1.6 | 0.00 | 0.00 | 0.00 | 73 | 1011.6 |
| 20260506013414 | 15 | 215 | 0.0 | 0.0 | 0.00 | 0.00 | 0.00 | 73 | 1011.7 |
| 20260506012910 | 15 | 215 | 0.0 | 0.0 | 0.00 | 0.00 | 0.00 | 73 | 1011.6 |
| 20260506012407 | 15 | 215 | 0.0 | 0.0 | 0.00 | 0.00 | 0.00 | 72 | 1011.7 |
| 20260506011903 | 16 | 215 | 0.0 | 0.0 | 0.00 | 0.00 | 0.00 | 71 | 1011.5 |
| 20260506011401 | 16 | 222 | 0.0 | 0.0 | 0.00 | 0.00 | 0.00 | 70 | 1011.6 |
| 20260506010858 | 16 | 223 | 0.0 | 0.0 | 0.00 | 0.00 | 0.00 | 69 | 1011.3 |
| 20260506010356 | 17 | 215 | 0.0 | 1.6 | 0.00 | 0.00 | 0.00 | 67 | 1011.2 |
| 20260506005852 | 17 | 220 | 0.0 | 1.6 | 0.00 | 0.00 | 0.00 | 63 | 1011.5 |
| 20260506005350 | 17 | 221 | 0.0 | 0.0 | 0.00 | 0.00 | 0.00 | 62 | 1011.4 |
| 20260506004845 | 17 | 228 | 0.0 | 0.0 | 0.00 | 0.00 | 0.00 | 62 | 1011.5 |
| 20260506004343 | 17 | 247 | 0.0 | 0.0 | 0.00 | 0.00 | 0.00 | 61 | 1011.5 |
| 20260506003839 | 17 | 234 | 0.0 | 0.0 | 0.00 | 0.00 | 0.00 | 61 | 1011.5 |
| 20260506003335 | 18 | 254 | 1.6 | 3.2 | 0.00 | 0.00 | 0.00 | 60 | 1011.4 |
| 20260506002832 | 18 | 250 | 0.0 | 1.6 | 0.00 | 0.00 | 0.00 | 60 | 1011.4 |
| 20260506002328 | 18 | 255 | 1.6 | 1.6 | 0.00 | 0.00 | 0.00 | 59 | 1011.3 |
| 20260506001824 | 18 | 268 | 3.2 | 3.2 | 0.00 | 0.00 | 0.00 | 59 | 1011.3 |
| 20260506001322 | 18 | 252 | 3.2 | 3.2 | 0.00 | 0.00 | 0.00 | 57 | 1011.4 |
| 20260506000818 | 18 | 259 | 3.2 | 3.2 | 0.00 | 0.00 | 0.00 | 57 | 1011.3 |
| 20260506000316 | 19 | 258 | 4.8 | 4.8 | 0.00 | 0.00 | 0.00 | 57 | 1011.3 |
| 20260505235813 | 19 | 327 | 0.0 | 0.0 | 0.00 | 0.00 | 0.00 | 57 | 1011.0 |
| 20260505235310 | 20 | 249 | 4.8 | 4.8 | 0.00 | 0.00 | 0.00 | 56 | 1011.3 |
| 20260505234807 | 20 | 274 | 4.8 | 4.8 | 0.00 | 0.00 | 0.00 | 57 | 1011.1 |
| 20260505234305 | 20 | 254 | 6.4 | 8.0 | 0.00 | 0.00 | 0.00 | 55 | 1011.1 |
| 20260505233801 | 20 | 288 | 4.8 | 4.8 | 0.00 | 0.00 | 0.00 | 55 | 1011.1 |
| 20260505233259 | 20 | 276 | 6.4 | 8.0 | 0.00 | 0.00 | 0.00 | 54 | 1011.3 |